Terminal Aerodrome Forecast
Issued by NWS Cleveland, OH

Home | Current Version | Previous Version | Graphics & Text | Print | Product List | Glossary On
Versions: 1 2 3 4 5 6 7 8 9 10 11 12 13 14 15 16 17 18 19 20 21 22 23 24 25
000
FTUS41 KCLE 231800 AAB
TAFMFD
TAF AMD
KMFD 231843Z 2319/2418 34010KT 5SM BR OVC015
      TEMPO 2319/2322 2SM -RA BR BKN006 OVC020
     FM232200 35010KT P6SM BKN020
     FM240000 35008KT P6SM BKN030=

USA.gov is the U.S. government's official web portal to all federal, state and local government web resources and services.